DateTimeUTC,F1_A11,F1_S11,BsB_S11,BsG_S11,BsR_S11,BbsB_S11,BbsG_S11,BbsR_S11,BaB_A11,BaG_A11,BaR_A11,T_S11,U_S11,P_S11,T1_A11
2020-02-23T00:00:00Z,00000388,21000608,,,,,,,,,,22.2,00.0,0605.2,30.7
2020-02-23T00:01:00Z,00000388,21000608,,,,,,,,,,22.2,00.0,0605.2,30.7
2020-02-23T00:02:00Z,00000388,21000608,,,,,,,,,,22.2,00.0,0605.2,30.7
2020-02-23T00:03:00Z,00000388,61000608,,,,,,,,,,22.3,00.0,0605.2,30.8
2020-02-23T00:04:00Z,00000388,41000608,0000.93,0000.16,-000.19,0000.13,0000.08,0000.23,-000.06,0000.16,-000.04,22.1,00.0,0606.0,30.8
2020-02-23T00:05:00Z,00000388,01000608,0000.37,-000.07,0000.02,-000.13,-000.27,0000.16,0000.03,0000.03,0000.04,22.1,00.0,0606.0,30.8
2020-02-23T00:06:00Z,00000388,01000608,0000.40,0000.01,0000.20,-000.07,0000.06,-000.08,-000.09,-000.03,-000.16,22.1,00.0,0606.0,30.8
2020-02-23T00:07:00Z,00000388,01000608,-000.16,0000.20,-000.13,0000.15,-000.27,-000.19,0000.21,0000.09,0000.30,22.1,00.0,0606.1,30.8
2020-02-23T00:08:00Z,00000388,01000608,-001.06,-000.61,-000.41,-000.25,0000.22,0000.07,0000.16,0000.30,0000.04,22.1,00.0,0606.1,30.8
2020-02-23T00:09:00Z,00000388,01000608,-000.01,-000.01,0000.06,-000.05,0000.15,0000.20,-000.20,-000.19,-000.09,22.1,00.0,0606.0,30.8
2020-02-23T00:10:00Z,00000388,01000608,-000.38,-000.38,0000.05,0000.27,-000.09,0000.18,0000.00,0000.24,0000.21,22.1,00.0,0606.1,30.8
2020-02-23T00:11:00Z,00000388,01000608,0001.49,0000.12,-000.04,0000.50,-000.03,0000.65,0000.23,-000.06,-000.07,22.1,00.0,0606.0,30.8
2020-02-23T00:12:00Z,00000388,01000608,0000.77,0000.21,-000.54,-000.40,0000.22,-000.31,-000.29,-000.10,-000.17,22.0,00.0,0606.0,30.8
2020-02-23T00:13:00Z,00000388,01000608,0000.06,0000.08,0000.07,-000.10,-000.02,-000.20,0000.05,-000.27,-000.12,22.0,00.0,0606.0,30.8
2020-02-23T00:14:00Z,00000388,01000608,0000.78,-000.02,0000.09,0001.12,-000.12,0000.37,-000.06,0000.06,0000.10,22.0,00.0,0606.0,30.7
2020-02-23T00:15:00Z,00000388,01000608,0000.69,-000.25,0000.40,0000.12,-000.16,0000.32,0000.09,0000.06,0000.04,22.0,00.0,0606.0,30.7
2020-02-23T00:16:00Z,00000388,01000608,0000.51,-000.13,0000.06,-000.36,-000.52,-000.08,-000.18,0000.12,-000.03,22.0,00.0,0606.0,30.7
2020-02-23T00:17:00Z,00000388,01000608,0000.99,-000.01,-000.26,0000.12,0000.15,0000.10,0000.13,-000.22,0000.05,22.0,00.0,0606.0,30.7
2020-02-23T00:18:00Z,00000388,01000608,0000.61,-000.24,-000.04,0000.65,-000.10,-000.16,0000.07,0000.08,0000.12,22.0,00.0,0606.0,30.7
2020-02-23T00:19:00Z,00000388,01000608,0000.33,0000.52,-000.22,0000.75,-000.29,0000.16,0000.10,0000.10,-000.08,22.0,00.0,0606.0,30.7
2020-02-23T00:20:00Z,00000388,01000608,0000.61,-000.29,-000.13,0000.64,0000.03,-000.10,0000.10,0000.05,0000.11,22.0,00.0,0606.0,30.8
2020-02-23T00:21:00Z,00000388,01000608,0000.15,0000.62,-000.04,0000.32,-000.11,0000.31,0000.02,0000.12,-000.08,22.1,00.0,0606.1,30.8
2020-02-23T00:22:00Z,00000388,01000608,0001.13,-000.51,0000.12,-000.17,-000.09,0000.24,-000.09,-000.00,0000.17,22.1,00.0,0606.1,30.8
2020-02-23T00:23:00Z,00000388,01000608,0000.76,-000.41,-000.67,0000.95,-000.36,0000.16,0000.10,0000.30,-000.02,22.0,00.0,0606.1,30.8
2020-02-23T00:24:00Z,00000388,01000608,0000.88,0000.11,0000.06,0000.75,-000.13,0000.07,0000.03,-000.17,0000.18,22.0,00.0,0606.0,30.8
2020-02-23T00:25:00Z,00000388,01000608,0001.66,-000.28,0000.06,-000.09,-000.54,-000.07,0000.15,0000.13,0000.08,22.0,00.0,0606.0,30.8
2020-02-23T00:26:00Z,00000388,01000608,0000.96,0000.22,-000.52,0000.06,-000.55,0000.01,-000.03,0000.07,-000.12,22.0,00.0,0606.0,30.7
2020-02-23T00:27:00Z,00000388,01000608,0000.39,0000.15,0000.44,0000.65,0000.08,0000.25,-000.09,-000.30,-000.14,21.9,00.0,0606.0,30.7
2020-02-23T00:28:00Z,00000388,01000608,0000.36,-000.03,0000.42,0000.56,-000.19,0000.26,-000.20,-000.09,-000.15,21.9,00.0,0606.0,30.7
2020-02-23T00:29:00Z,00000388,01000608,0000.38,0000.08,-000.11,-000.20,-000.11,-000.39,0000.13,-000.06,0000.10,21.9,00.0,0606.0,30.7
2020-02-23T00:30:00Z,00000388,01000608,0000.46,0000.39,-000.23,0000.83,-000.15,-000.27,0000.14,-000.00,0000.01,21.9,00.0,0606.0,30.7
2020-02-23T00:31:00Z,00000388,01000608,0001.04,-000.00,-000.09,0001.09,0000.05,-000.05,-000.05,0000.36,0000.11,21.9,00.0,0606.0,30.7
2020-02-23T00:32:00Z,00000388,01000608,0000.61,0000.30,-000.18,0000.71,0000.01,0000.12,0000.06,-000.13,-000.10,21.9,00.0,0606.0,30.7
2020-02-23T00:33:00Z,00000388,01000608,0000.37,0000.13,-000.15,-000.38,0000.01,-000.02,-000.03,0000.02,0000.20,21.9,00.0,0605.9,30.7
2020-02-23T00:34:00Z,00000388,01000608,0000.11,-000.08,0000.46,-000.44,0000.15,0000.07,0000.13,0000.20,0000.05,21.9,00.0,0605.9,30.7
2020-02-23T00:35:00Z,00000388,01000608,-000.07,0000.47,-000.32,0000.58,-000.16,0000.09,-000.03,-000.10,-000.16,21.9,00.0,0605.9,30.7
2020-02-23T00:36:00Z,00000388,01000608,0000.20,0000.66,-000.12,0000.88,0000.06,0000.05,0000.03,0000.14,-000.00,21.9,00.0,0605.9,30.7
2020-02-23T00:37:00Z,00000388,01000608,0001.03,0000.11,0000.00,0000.51,-000.35,-000.01,0000.06,-000.09,0000.12,21.9,00.0,0605.9,30.7
2020-02-23T00:38:00Z,00000388,01000608,0000.76,0000.30,-000.10,-000.34,-000.02,0000.03,0000.08,0000.11,0000.06,21.9,00.0,0605.8,30.8
2020-02-23T00:39:00Z,00000388,01000608,0000.22,0000.86,-000.15,0000.29,-000.03,0000.12,-000.07,0000.05,0000.05,21.9,00.0,0605.8,30.7
2020-02-23T00:40:00Z,00000388,01000608,0000.43,-000.04,-000.38,0000.15,0000.28,0000.27,0000.11,0000.16,-000.03,21.9,00.0,0605.8,30.8
2020-02-23T00:41:00Z,00000388,01000608,0000.24,-000.26,-000.38,0001.18,-000.05,0000.13,0000.02,0000.08,0000.02,21.9,00.0,0605.7,30.7
2020-02-23T00:42:00Z,00000388,01000608,0000.27,-000.08,-000.01,0000.60,0000.25,-000.07,-000.12,-000.23,0000.05,21.8,00.0,0605.7,30.7
2020-02-23T00:43:00Z,00000388,01000608,0001.44,-000.20,-000.34,0000.90,-000.11,-000.05,-000.05,-000.07,-000.17,21.8,00.0,0605.7,30.7
2020-02-23T00:44:00Z,00000388,01000608,0000.66,0000.18,0000.02,0000.56,-000.11,0000.07,-000.00,-000.11,0000.09,21.8,00.0,0605.7,30.7
2020-02-23T00:45:00Z,00000388,01000608,0000.02,-000.02,-000.35,0001.31,0000.14,-000.11,0000.25,0000.25,0000.07,21.8,00.0,0605.8,30.7
2020-02-23T00:46:00Z,00000388,01000608,0000.50,0000.02,-000.11,-000.03,-000.16,-000.40,-000.02,0000.06,0000.07,21.8,00.0,0605.8,30.7
2020-02-23T00:47:00Z,00000388,01000608,0000.43,-000.30,0000.01,0000.32,0000.03,0000.30,-000.05,-000.06,0000.06,21.8,00.0,0605.8,30.7
2020-02-23T00:48:00Z,00000388,01000608,0001.13,-000.01,-000.18,0000.91,-000.14,0000.29,-000.09,-000.07,-000.12,21.8,00.0,0605.9,30.7
2020-02-23T00:49:00Z,00000388,01000608,0000.16,0000.06,-000.08,0000.84,-000.16,-000.45,0000.23,-000.06,0000.02,21.8,00.0,0605.9,30.7
2020-02-23T00:50:00Z,00000388,01000608,0000.22,0000.12,0000.01,0000.18,-000.20,0000.27,-000.14,0000.04,0000.04,21.8,00.0,0606.0,30.7
2020-02-23T00:51:00Z,00000388,01000608,0000.00,-000.01,-000.06,-000.34,0000.22,-000.02,-000.08,0000.02,0000.18,21.8,00.0,0606.0,30.7
2020-02-23T00:52:00Z,00000388,01000608,0001.10,-000.75,-000.55,-000.50,0000.51,0000.03,0000.02,0000.17,-000.13,21.8,00.0,0606.1,30.7
2020-02-23T00:53:00Z,00000388,01000608,0001.91,0000.23,-000.33,0000.64,-000.35,-000.05,0000.21,0000.00,0000.16,21.8,00.0,0606.1,30.7
2020-02-23T00:54:00Z,00000388,01000608,0000.12,0000.28,-000.23,0000.41,-000.04,-000.03,-000.03,0000.30,-000.00,21.8,00.0,0606.1,30.8
2020-02-23T00:55:00Z,00000388,01000608,0000.99,0000.36,-000.11,0000.08,0000.01,-000.45,0000.07,-000.11,0000.04,21.8,00.0,0606.1,30.7
2020-02-23T00:56:00Z,00000388,01000608,0000.77,0000.06,0000.07,0000.57,0000.32,-000.07,-000.11,0000.01,0000.07,21.8,00.0,0606.2,30.7
2020-02-23T00:57:00Z,00000388,41000608,,,,,,,,,,21.8,00.0,0606.2,30.7
2020-02-23T00:58:00Z,00000388,61000608,,,,,,,,,,21.9,00.0,0605.3,30.7
2020-02-23T00:59:00Z,00000388,21000608,,,,,,,,,,22.0,00.0,0605.3,30.7
2020-02-23T01:00:00Z,00000388,21000608,,,,,,,,,,22.0,00.0,0605.3,30.7
2020-02-23T01:01:00Z,00000388,21000608,,,,,,,,,,22.0,00.0,0605.3,30.7
2020-02-23T01:02:00Z,00000388,21000608,,,,,,,,,,22.0,00.0,0605.3,30.7
2020-02-23T01:03:00Z,00000388,61000608,,,,,,,,,,22.0,00.0,0605.3,30.7
2020-02-23T01:04:00Z,00000388,41000608,0000.12,0000.38,0000.32,-000.20,-000.57,0000.06,-000.18,0000.08,-000.09,21.9,00.0,0606.2,30.7
2020-02-23T01:05:00Z,00000388,01000608,0001.08,0000.39,0000.06,-000.35,0000.14,0000.21,0000.32,0000.06,0000.21,21.8,00.0,0606.2,30.7
2020-02-23T01:06:00Z,00000388,01000608,0000.88,0000.79,0000.78,0000.95,0000.41,0000.20,-000.00,0000.09,0000.01,21.8,00.0,0606.2,30.7
2020-02-23T01:07:00Z,00000388,01000608,0001.33,0000.24,0000.00,0000.25,-000.22,0000.08,-000.03,-000.05,-000.00,21.8,00.0,0606.2,30.7
2020-02-23T01:08:00Z,00000388,01000608,-000.02,0000.23,-000.01,0000.74,-000.35,-000.07,-000.04,-000.14,-000.06,21.8,00.0,0606.2,30.7
2020-02-23T01:09:00Z,00000388,01000608,-000.11,0000.88,0000.25,0000.38,0000.23,0000.16,-000.00,-000.10,-000.10,21.8,00.0,0606.2,30.7
2020-02-23T01:10:00Z,00000388,01000608,-000.30,0000.26,0000.31,0000.76,0000.23,-000.25,0000.05,0000.32,0000.14,21.8,00.0,0606.2,30.7
2020-02-23T01:11:00Z,00000388,01000608,-000.85,0001.02,0000.28,0000.80,-000.58,0000.07,0000.07,0000.09,0000.09,21.8,00.0,0606.2,30.7
2020-02-23T01:12:00Z,00000388,01000608,-000.23,0000.44,0000.22,0000.52,0000.06,0000.11,-000.06,-000.18,-000.13,21.8,00.0,0606.2,30.7
2020-02-23T01:13:00Z,00000388,01000608,0000.90,0000.14,0000.28,-000.51,-000.09,0000.25,-000.14,-000.32,-000.01,21.7,00.0,0606.2,30.7
2020-02-23T01:14:00Z,00000388,01000608,0000.42,0000.38,-000.01,0000.03,0000.09,0000.07,0000.08,0000.33,-000.03,21.7,00.0,0606.3,30.7
2020-02-23T01:15:00Z,00000388,01000608,-000.63,0000.11,0000.11,-000.02,-000.13,0000.14,0000.04,-000.16,0000.19,21.7,00.0,0606.3,30.7
2020-02-23T01:16:00Z,00000388,01000608,0001.11,0000.32,0000.66,0000.15,0000.16,-000.18,-000.00,0000.15,-000.31,21.7,00.0,0606.3,30.7
2020-02-23T01:17:00Z,00000388,01000608,-001.73,0000.58,0000.38,0000.60,0000.40,0000.12,0000.05,-000.01,0000.20,21.7,00.0,0606.3,30.7
2020-02-23T01:18:00Z,00000388,01000608,-000.31,0000.50,0000.35,0000.56,-000.19,-000.14,-000.01,-000.07,-000.00,21.7,00.0,0606.3,30.7
2020-02-23T01:19:00Z,00000388,01000608,-000.09,-000.01,0000.17,0000.42,0000.00,-000.10,0000.07,-000.16,-000.02,21.7,00.0,0606.3,30.7
2020-02-23T01:20:00Z,00000388,01000608,-001.56,-000.19,0000.62,0000.58,-000.40,0000.05,-000.03,0000.15,-000.05,21.8,00.0,0606.3,30.7
2020-02-23T01:21:00Z,00000388,01000608,0000.20,0000.24,0000.26,0000.62,-000.13,0000.02,-000.01,0000.06,0000.08,21.8,00.0,0606.3,30.7
2020-02-23T01:22:00Z,00000388,01000608,0000.10,0000.34,0000.74,0000.35,-000.68,0000.47,0000.09,-000.01,0000.02,21.8,00.0,0606.4,30.7
2020-02-23T01:23:00Z,00000388,01000608,0000.11,0000.02,0000.74,0000.10,-000.34,0000.30,0000.11,0000.39,0000.05,21.8,00.0,0606.4,30.7
2020-02-23T01:24:00Z,00000388,01000608,-000.30,0001.05,-000.33,0000.41,0000.05,-000.33,-000.22,-000.26,0000.14,21.8,00.0,0606.4,30.7
2020-02-23T01:25:00Z,00000388,01000608,0000.11,0000.46,0000.29,0000.36,0000.12,0000.17,0000.31,0000.26,-000.08,21.8,00.0,0606.4,30.7
2020-02-23T01:26:00Z,00000388,01000608,0000.87,0000.34,0000.56,0000.41,0000.10,-000.23,0000.12,0000.21,0000.06,21.8,00.0,0606.4,30.7
2020-02-23T01:27:00Z,00000388,01000608,0000.23,0000.78,0000.67,0000.15,0000.05,-000.13,-000.26,-000.36,-000.05,21.7,00.0,0606.4,30.7
2020-02-23T01:28:00Z,00000388,01000608,-001.23,0000.40,-000.32,0000.31,0000.38,0000.21,-000.14,-000.18,-000.20,21.7,00.0,0606.4,30.7
2020-02-23T01:29:00Z,00000388,01000608,0001.60,0000.11,0000.08,0000.44,-000.01,0000.26,0000.02,0000.05,0000.00,21.7,00.0,0606.4,30.7
2020-02-23T01:30:00Z,00000388,01000608,-000.15,0000.20,0000.29,0000.44,-000.33,-000.26,0000.06,0000.19,0000.05,21.7,00.0,0606.4,30.7
2020-02-23T01:31:00Z,00000388,01000608,-000.25,0000.53,0000.64,0000.59,-000.23,0000.32,0000.07,-000.13,0000.22,21.7,00.0,0606.4,30.7
2020-02-23T01:32:00Z,00000388,01000608,0000.67,0001.13,-000.04,0000.28,0000.40,-000.06,0000.06,0000.09,-000.09,21.7,00.0,0606.4,30.7
2020-02-23T01:33:00Z,00000388,01000608,0001.28,0000.99,0000.58,0000.80,0000.34,0000.27,-000.04,-000.25,-000.02,21.7,00.0,0606.3,30.7
2020-02-23T01:34:00Z,00000388,01000608,-000.72,0000.41,0000.35,0000.82,0000.17,0000.14,0000.08,0000.23,0000.05,21.8,00.0,0606.4,30.7
2020-02-23T01:35:00Z,00000388,01000608,-000.96,0000.27,0000.20,0000.23,-000.12,-000.26,-000.01,-000.01,-000.06,21.8,00.0,0606.4,30.7
2020-02-23T01:36:00Z,00000388,01000608,0000.22,0000.24,0000.39,0000.16,-000.13,0000.10,0000.01,0000.06,0000.01,21.8,00.0,0606.4,30.7
2020-02-23T01:37:00Z,00000388,01000608,-000.11,-000.19,0000.26,0000.55,-000.18,0000.12,0000.15,0000.28,0000.20,21.8,00.0,0606.4,30.7
2020-02-23T01:38:00Z,00000388,01000608,-000.35,0000.87,-000.05,0000.94,-000.25,-000.34,-000.00,-000.17,-000.04,21.9,00.0,0606.4,30.7
2020-02-23T01:39:00Z,00000388,01000608,-000.14,0000.59,0000.19,0001.07,-000.34,0000.37,0000.08,0000.27,0000.07,21.9,00.0,0606.4,30.8
2020-02-23T01:40:00Z,00000388,01000608,-000.13,-000.16,0000.19,0000.67,0000.40,-000.23,0000.06,-000.05,0000.08,21.9,00.0,0606.4,30.8
2020-02-23T01:41:00Z,00000388,01000608,0000.35,-000.08,0000.22,0000.49,0000.02,0000.05,0000.11,0000.27,0000.02,21.9,00.0,0606.3,30.8
2020-02-23T01:42:00Z,00000388,01000608,-000.65,0000.71,0000.93,0000.20,0000.46,0000.10,-000.03,-000.30,0000.12,21.9,00.0,0606.3,30.8
2020-02-23T01:43:00Z,00000388,01000608,0001.00,0000.47,0000.40,0000.32,-000.14,0000.11,-000.03,0000.03,-000.14,21.8,00.0,0606.2,30.8
2020-02-23T01:44:00Z,00000388,01000608,0000.18,0000.64,0000.05,-000.00,0000.01,-000.08,-000.06,-000.13,-000.17,21.8,00.0,0606.2,30.8
2020-02-23T01:45:00Z,00000388,01000608,0000.74,0000.33,0000.40,0000.27,-000.30,-000.18,0000.15,0000.07,0000.14,21.8,00.0,0606.2,30.7
2020-02-23T01:46:00Z,00000388,01000608,0000.22,0000.03,0000.12,-001.26,-000.63,0000.32,-000.07,-000.10,-000.10,21.9,00.0,0606.2,30.8
2020-02-23T01:47:00Z,00000388,01000608,-000.04,0000.80,0000.11,0000.49,-000.24,0000.08,0000.12,0000.21,-000.00,21.9,00.0,0606.2,30.7
2020-02-23T01:48:00Z,00000388,01000608,-000.55,0000.62,0000.28,0000.20,-000.12,-000.03,-000.04,-000.03,0000.21,21.9,00.0,0606.2,30.7
2020-02-23T01:49:00Z,00000388,01000608,-001.08,0000.37,0000.49,0000.25,0000.32,0000.21,0000.00,-000.04,-000.00,21.9,00.0,0606.2,30.8
2020-02-23T01:50:00Z,00000388,01000608,-000.07,0000.15,0000.01,0000.58,0000.26,0000.16,0000.12,0000.20,0000.06,21.9,00.0,0606.2,30.8
2020-02-23T01:51:00Z,00000388,01000608,-000.46,0000.24,-000.11,-000.73,-000.06,0000.03,0000.12,0000.19,-000.03,22.0,00.0,0606.2,30.8
2020-02-23T01:52:00Z,00000388,01000608,0000.48,0000.47,0000.19,0000.84,0000.17,0000.07,-000.08,-000.07,0000.03,22.0,00.0,0606.2,30.8
2020-02-23T01:53:00Z,00000388,01000608,-000.33,0000.52,0000.38,0000.66,0000.28,0000.39,0000.16,-000.01,-000.05,22.0,00.0,0606.2,30.8
2020-02-23T01:54:00Z,00000388,01000608,0000.26,0000.61,0000.40,0000.07,-000.20,-000.04,-000.03,0000.26,0000.19,22.0,00.0,0606.2,30.8
2020-02-23T01:55:00Z,00000388,01000608,0001.52,0000.27,-000.07,0000.43,-000.09,-000.22,0000.21,0000.11,0000.02,22.0,00.0,0606.2,30.8
2020-02-23T01:56:00Z,00000388,01000608,-001.42,-000.10,0000.18,-000.04,-000.11,0000.16,-000.03,0000.04,0000.05,21.9,00.0,0606.2,30.8
2020-02-23T01:57:00Z,00000388,41000608,,,,,,,,,,22.0,00.0,0606.2,30.8
2020-02-23T01:58:00Z,00000388,61000608,,,,,,,,,,22.0,00.0,0605.3,30.8
2020-02-23T01:59:00Z,00000388,21000608,,,,,,,,,,22.1,00.0,0605.3,30.7
2020-02-23T02:00:00Z,00000388,21000608,,,,,,,,,,22.2,00.0,0605.3,30.7
2020-02-23T02:01:00Z,00000388,21000608,,,,,,,,,,22.2,00.0,0605.4,30.7
2020-02-23T02:02:00Z,00000388,21000608,,,,,,,,,,22.2,00.0,0605.4,30.7
2020-02-23T02:03:00Z,00000388,61000608,,,,,,,,,,22.2,00.0,0605.4,30.7
2020-02-23T02:04:00Z,00000388,41000608,0000.52,0000.25,-000.35,-000.16,0000.20,0000.53,0000.00,0000.17,-000.00,22.1,00.0,0606.3,30.7
2020-02-23T02:05:00Z,00000388,01000608,0001.09,0000.18,0000.31,0000.06,0000.08,0000.56,0000.01,-000.03,0000.08,22.1,00.0,0606.4,30.8
2020-02-23T02:06:00Z,00000388,01000608,-000.61,0000.74,-000.00,0000.54,-000.10,0000.25,0000.20,0000.05,-000.08,22.1,00.0,0606.4,30.8
2020-02-23T02:07:00Z,00000388,01000608,0000.42,0001.17,-000.04,0000.71,-000.04,0000.27,-000.14,0000.06,0000.25,22.1,00.0,0606.4,30.8
2020-02-23T02:08:00Z,00000388,01000608,-000.63,0000.60,0000.16,0000.00,0000.09,0000.07,0000.13,0000.23,-000.10,22.1,00.0,0606.4,30.8
2020-02-23T02:09:00Z,00000388,01000608,0000.32,0000.13,0000.11,0000.29,0000.25,0000.08,0000.06,-000.07,-000.03,22.1,00.0,0606.4,30.8
2020-02-23T02:10:00Z,00000388,01000608,0001.49,0000.69,-000.04,-000.13,0000.14,0000.43,0000.05,0000.27,0000.05,22.1,00.0,0606.4,30.8
2020-02-23T02:11:00Z,00000388,01000608,0000.82,0000.35,-000.09,-000.74,-000.29,0000.50,-000.03,0000.11,0000.21,22.1,00.0,0606.4,30.8
2020-02-23T02:12:00Z,00000388,01000608,-000.42,0000.03,0000.32,-000.06,-000.22,0000.10,0000.04,-000.12,0000.07,22.1,00.0,0606.3,30.8
2020-02-23T02:13:00Z,00000388,01000608,0000.31,-000.24,0000.03,-000.74,-000.35,0000.60,-000.18,-000.50,-000.24,22.0,00.0,0606.3,30.8
2020-02-23T02:14:00Z,00000388,01000608,0000.01,-000.23,0000.34,-000.00,-000.01,0000.28,0000.11,0000.17,-000.04,22.0,00.0,0606.3,30.8
2020-02-23T02:15:00Z,00000388,01000608,0000.79,0000.00,0000.48,-000.16,-000.00,0000.13,-000.08,0000.04,0000.26,22.1,00.0,0606.4,30.8
2020-02-23T02:16:00Z,00000388,01000608,0000.98,0000.35,-000.17,0000.89,-000.19,0000.29,0000.17,0000.06,-000.12,22.1,00.0,0606.4,30.8
2020-02-23T02:17:00Z,00000388,01000608,0000.75,0000.84,0000.24,0000.16,-000.27,-000.02,-000.01,-000.06,0000.02,22.1,00.0,0606.4,30.8
2020-02-23T02:18:00Z,00000388,01000608,0000.37,0000.19,0000.49,-000.02,-000.20,0000.69,0000.00,-000.04,-000.01,22.1,00.0,0606.4,30.8
2020-02-23T02:19:00Z,00000388,01000608,0000.71,-000.33,0000.37,-000.46,-000.18,0000.20,-000.10,-000.07,-000.06,22.2,00.0,0606.4,30.8
2020-02-23T02:20:00Z,00000388,01000608,-000.88,-000.15,-000.25,0000.22,-000.15,0000.26,-000.18,0000.23,0000.24,22.2,00.0,0606.4,30.8
2020-02-23T02:21:00Z,00000388,01000608,-000.73,0000.45,0000.11,0000.02,-000.10,0000.80,0000.36,0000.05,-000.14,22.2,00.0,0606.4,30.8
2020-02-23T02:22:00Z,00000388,01000608,0000.28,0000.40,0000.24,-000.12,-000.07,0000.35,0000.12,0000.30,0000.22,22.2,00.0,0606.4,30.8
2020-02-23T02:23:00Z,00000388,01000608,0000.17,0000.39,0000.15,0000.51,0000.35,0000.26,0000.05,0000.05,-000.04,22.1,00.0,0606.3,30.8
2020-02-23T02:24:00Z,00000388,01000608,0000.52,-000.24,-000.25,0000.70,-000.14,-000.04,-000.00,0000.10,0000.01,22.1,00.0,0606.3,30.8
2020-02-23T02:25:00Z,00000388,01000608,0000.30,-000.02,-000.30,0000.00,-000.12,0000.36,-000.03,-000.17,-000.02,22.0,00.0,0606.3,30.8
2020-02-23T02:26:00Z,00000388,01000608,0000.58,0000.47,-000.11,-000.28,-000.34,0000.54,0000.04,-000.01,-000.12,22.0,00.0,0606.3,30.8
2020-02-23T02:27:00Z,00000388,01000608,0000.27,0000.05,0000.03,0000.47,0000.21,0000.03,-000.28,-000.41,-000.11,22.0,00.0,0606.2,30.8
2020-02-23T02:28:00Z,00000388,01000608,-000.01,0000.18,-000.21,0000.29,-000.09,-000.11,-000.04,-000.12,-000.04,21.9,00.0,0606.2,30.7
2020-02-23T02:29:00Z,00000388,01000608,0000.88,0000.22,-000.15,-000.14,-000.65,0000.15,0000.02,0000.14,0000.02,21.9,00.0,0606.3,30.7
2020-02-23T02:30:00Z,00000388,01000608,0000.86,-000.14,-000.03,0000.14,-000.09,0000.07,0000.06,0000.04,0000.04,21.9,00.0,0606.3,30.7
2020-02-23T02:31:00Z,00000388,01000608,-000.10,0000.12,0000.10,0001.37,0000.40,0000.16,0000.10,0000.01,0000.00,21.9,00.0,0606.2,30.7
2020-02-23T02:32:00Z,00000388,01000608,0000.45,0000.10,-000.07,-000.77,0000.12,0000.16,0000.02,0000.18,0000.24,21.9,00.0,0606.3,30.7
2020-02-23T02:33:00Z,00000388,01000608,-000.50,0000.14,-000.14,-000.21,0000.18,-000.15,0000.10,-000.00,-000.04,21.9,00.0,0606.3,30.7
2020-02-23T02:34:00Z,00000388,01000608,0000.51,0000.19,-000.06,-000.47,0000.30,0000.19,0000.03,0000.16,-000.02,22.0,00.0,0606.4,30.7
2020-02-23T02:35:00Z,00000388,01000608,-000.20,-000.10,-000.34,0000.52,0000.13,0000.16,0000.01,-000.21,0000.08,22.0,00.0,0606.4,30.7
2020-02-23T02:36:00Z,00000388,01000608,-000.25,0000.06,0000.25,-000.38,-000.26,0000.03,0000.09,0000.02,-000.05,22.0,00.0,0606.4,30.7
2020-02-23T02:37:00Z,00000388,01000608,0000.13,0000.23,-000.26,-000.89,-000.07,-000.24,0000.14,0000.26,-000.11,22.0,00.0,0606.4,30.7
2020-02-23T02:38:00Z,00000388,01000608,0000.71,0000.13,0000.25,0000.97,-000.23,0000.75,-000.09,0000.04,0000.26,22.0,00.0,0606.4,30.8
2020-02-23T02:39:00Z,00000388,01000608,0000.00,-000.40,0000.11,-000.37,-000.14,0000.03,0000.05,-000.03,0000.04,22.0,00.0,0606.3,30.8
2020-02-23T02:40:00Z,00000388,01000608,0000.46,0000.31,-000.00,0000.78,-000.28,0000.14,0000.18,0000.31,0000.13,22.0,00.0,0606.3,30.8
2020-02-23T02:41:00Z,00000388,01000608,-000.30,0000.23,-000.04,0000.33,0000.38,0000.78,-000.02,0000.01,-000.02,22.0,00.0,0606.3,30.8
2020-02-23T02:42:00Z,00000388,01000608,0000.70,-000.13,0000.15,-000.35,0000.15,0000.14,-000.16,-000.14,-000.05,22.0,00.0,0606.3,30.8
2020-02-23T02:43:00Z,00000388,01000608,0000.34,0000.37,-000.22,0000.20,-000.24,0000.34,0000.07,-000.26,0000.01,21.9,00.0,0606.3,30.7
2020-02-23T02:44:00Z,00000388,01000608,0000.67,0000.13,-000.14,-000.20,0000.02,0000.24,0000.04,-000.00,-000.03,21.9,00.0,0606.3,30.7
2020-02-23T02:45:00Z,00000388,01000608,0000.44,0000.05,0000.32,-000.53,0000.17,0000.20,0000.07,0000.34,-000.01,21.9,00.0,0606.3,30.7
2020-02-23T02:46:00Z,00000388,01000608,0000.64,0000.35,-000.04,0000.45,0000.25,0000.16,-000.05,-000.06,0000.10,21.9,00.0,0606.4,30.7
2020-02-23T02:47:00Z,00000388,01000608,0000.44,0000.07,0000.08,0000.00,-000.07,0000.38,0000.10,-000.09,-000.06,21.9,00.0,0606.3,30.7
2020-02-23T02:48:00Z,00000388,01000608,0000.42,0000.24,0000.49,0000.49,0000.05,0000.16,-000.07,-000.01,0000.06,21.9,00.0,0606.3,30.7
2020-02-23T02:49:00Z,00000388,01000608,0000.88,-000.15,-000.04,0000.47,0000.36,0000.31,-000.00,-000.06,-000.02,22.0,00.0,0606.4,30.7
2020-02-23T02:50:00Z,00000388,01000608,-000.99,-000.07,0000.26,0000.86,-000.09,0000.34,0000.25,0000.20,0000.06,22.0,00.0,0606.4,30.7
2020-02-23T02:51:00Z,00000388,01000608,-000.03,0000.61,0000.03,-000.73,-000.13,0000.04,0000.05,0000.03,-000.02,22.0,00.0,0606.4,30.7
2020-02-23T02:52:00Z,00000388,01000608,-000.30,-000.40,-000.33,-000.26,-000.54,0000.62,-000.11,0000.10,0000.11,22.0,00.0,0606.4,30.8
2020-02-23T02:53:00Z,00000388,01000608,-000.49,-000.22,0000.26,-000.46,-000.19,0000.10,0000.13,0000.11,-000.11,22.0,00.0,0606.4,30.8
2020-02-23T02:54:00Z,00000388,01000608,-000.19,-000.07,-000.14,-000.15,0000.02,0000.57,0000.18,0000.25,0000.27,22.0,00.0,0606.4,30.8
2020-02-23T02:55:00Z,00000388,01000608,0000.56,-000.12,0000.25,0000.39,-000.28,0000.18,0000.17,0000.11,0000.11,22.0,00.0,0606.3,30.8
2020-02-23T02:56:00Z,00000388,01000608,0001.40,-000.05,0000.10,0000.54,-000.04,0000.21,-000.16,0000.03,-000.12,22.0,00.0,0606.3,30.8
2020-02-23T02:57:00Z,00000388,41000608,,,,,,,,,,22.0,00.0,0606.4,30.8
2020-02-23T02:58:00Z,00000388,61000608,,,,,,,,,,22.1,00.0,0605.4,30.7
2020-02-23T02:59:00Z,00000388,21000608,,,,,,,,,,22.2,00.0,0605.4,30.7
2020-02-23T03:00:00Z,00000388,21000608,,,,,,,,,,22.2,00.0,0605.4,30.7
2020-02-23T03:01:00Z,00000388,21000608,,,,,,,,,,22.2,00.0,0605.4,30.7
2020-02-23T03:02:00Z,00000388,21000608,,,,,,,,,,22.2,00.0,0605.4,30.7
2020-02-23T03:03:00Z,00000388,61000608,,,,,,,,,,22.3,00.0,0605.4,30.7
2020-02-23T03:04:00Z,00000388,41000608,0000.18,-000.04,0000.31,-000.48,-000.05,-000.09,0000.00,0000.02,0000.22,22.1,00.0,0606.1,30.7
2020-02-23T03:05:00Z,00000388,01000608,0000.44,0000.75,-000.45,0000.69,0000.23,0000.04,0000.25,0000.12,0000.02,22.1,00.0,0606.2,30.7
2020-02-23T03:06:00Z,00000388,01000608,0000.61,-000.19,-000.07,0000.71,-000.08,0000.10,-000.07,-000.04,-000.09,22.1,00.0,0606.2,30.8
2020-02-23T03:07:00Z,00000388,01000608,0000.23,0000.21,-000.13,0000.38,0000.08,-000.22,0000.07,0000.30,0000.26,22.1,00.0,0606.2,30.8
2020-02-23T03:08:00Z,00000388,01000608,-000.51,0000.32,-000.24,0000.47,0000.38,0000.10,-000.07,-000.18,-000.04,22.1,00.0,0606.2,30.8
2020-02-23T03:09:00Z,00000388,01000608,0001.05,-000.01,0000.22,-000.36,0000.30,-000.02,0000.01,0000.30,0000.05,22.1,00.0,0606.2,30.8
2020-02-23T03:10:00Z,00000388,01000608,0001.22,-000.42,-000.27,0000.33,-000.05,-000.29,0000.14,-000.00,0000.06,22.1,00.0,0606.2,30.8